Content
SEND FEEDBACK

Daily
Averages
Monthly
Summary
Philippines

QUEZON CITY, PHILIPPINES


Home > Asia > Philippines
Elevation: 46 meters     Latitude: 14 39N     Longitude: 121 03E

WEATHER
 
SELECT A DAY
Number of Records: 172,513;   Date Range: 7/1/96 - 7/29/14
 
SHARE

PRINT THIS DATA

[ ← Previous Day ]
WEATHER ALMANAC - 5 JANUARY, 2013
[ Next Day → ]
[ °F ]   °C
Weather ElementAverageHighLow
Temperature28.2 °C33 °C (2:00 pm)25 °C (5:00 am)
Dewpoint22.6 °C25 °C (8:00 pm)20 °C (2:00 pm)
Humidity71.5 %100 % (8:00 pm)37 % (2:00 pm)
Barometer1009.1 hPa1011.5 hPa (11:00 pm)1007.1 hPa (3:00 am)
Wind Speed10 km/h22.2 km/h (7:00 pm)
Weather ElementAverage
Visibility9.7 km
Wind DirectionESE (116.1 °)

Weather ElementTotal
Precipitation---
Cooling Degree Days10.7 (Base 18.3)
Growing Degree Days19 (Base 10)
Averaged from 31 records on 5 January, 2013
WEATHER CONDITIONS BREAKOUT
WIND DIRECTION BREAKOUT
WEATHER BY HOUR - 5 JANUARY, 2013
[ °F ]   °C
Local TimeTemperatureDewpointHumidityBarometerVisibilityWind DirectionWind SpeedGust SpeedPrecipitationEventsConditions
1:00 AM27 °C23 °C79 %1008.1 hPa10 kmEast (100°)11.1 km/hScattered Clouds
2:00 AM26.7 °C23.3 °C76 %1008.1 hPa9.7 kmEast (90°)10.8 km/hHaze
2:00 AM27 °C23 °C79 %1008.1 hPa10 kmEast (90°)9.3 km/hMostly Cloudy
3:00 AM26 °C23 °C83 %1007.1 hPa10 kmEast (90°)5.6 km/hMostly Cloudy
4:00 AM26 °C23 °C83 %1008.1 hPa10 kmEast (100°)5.6 km/hScattered Clouds
5:00 AM25 °C22.8 °C83 %1008.5 hPa9.7 kmENE (70°)3.5 km/hHaze
5:00 AM25 °C23 °C89 %1008.1 hPa10 kmVariable3.7 km/hPartly Cloudy
6:00 AM25 °C23 °C89 %1009.1 hPa10 kmNW (310°)5.6 km/hPartly Cloudy
7:00 AM25 °C23 °C89 %1009.1 hPa10 kmNNW (340°)3.7 km/hPartly Cloudy
8:00 AM26.7 °C22.8 °C73 %1010.2 hPa9.7 kmNorth (10°)10.8 km/hHaze
8:00 AM27 °C23 °C79 %1010.2 hPa10 kmNorth (10°)11.1 km/hPartly Cloudy
9:00 AM28 °C22 °C70 %1010.2 hPa10 kmNNE (30°)5.6 km/hPartly Cloudy
10:00 AM31 °C22 °C58 %1010.2 hPa10 kmEast (90°)11.1 km/hPartly Cloudy
11:00 AM31.1 °C21.1 °C46 %1009.8 hPa9.7 kmESE (120°)10.8 km/hPartly Cloudy
11:00 AM31 °C21 °C55 %1009.1 hPa10 kmEast (100°)13 km/hPartly Cloudy
12:00 PM32 °C21 °C52 %1009.1 hPa10 kmESE (120°)11.1 km/hPartly Cloudy
1:00 PM31 °C24 °C66 %1008.1 hPa10 kmWSW (240°)9.3 km/hPartly Cloudy
2:00 PM32.8 °C20 °C37 %1007.5 hPa9.7 kmEast (90°)10.8 km/hScattered Clouds
2:00 PM33 °C20 °C46 %1007.1 hPa10 kmEast (90°)13 km/hPartly Cloudy
3:00 PM33 °C23 °C55 %1007.1 hPa10 kmSE (140°)9.3 km/hPartly Cloudy
4:00 PM32 °C21 °C52 %1007.1 hPa10 kmSSE (150°)5.6 km/hPartly Cloudy
5:00 PM31.1 °C21.7 °C49 %1007.8 hPa9.7 kmESE (120°)10.8 km/hScattered Clouds
5:00 PM31 °C22 °C58 %1007.1 hPa10 kmESE (120°)18.5 km/hPartly Cloudy
6:00 PM29 °C23 °C70 %1008.1 hPa10 kmSE (130°)11.1 km/hMostly Cloudy
7:00 PM28 °C23 °C74 %1009.1 hPa9 kmESE (110°)22.2 km/hRainLight Rain Showers
8:00 PM25 °C24.4 °C97 %1010.8 hPa8 kmSE (130°)10.8 km/hRainLight Rain
8:00 PM25 °C25 °C100 %1010.2 hPa8 kmSE (130°)11.1 km/hRainLight Rain
9:00 PM26 °C24 °C89 %1011.2 hPa9 kmSE (130°)11.1 km/hRainLight Rain
10:00 PM26 °C23 °C83 %1011.2 hPa9 kmSE (130°)11.1 km/hOvercast
11:00 PM26.7 °C22.8 °C73 %1011.5 hPa9.7 kmESE (110°)10.8 km/hHaze
11:00 PM26 °C23 °C83 %1011.2 hPa10 kmESE (110°)11.1 km/hMostly Cloudy
Hourly data recorded from RPLL, located 0 kilometers away from Quezon City, Philippines







STORIES FROM OUR PARTNERS